カタログに戻る

STARLINK-5176

運用中通信VLEO
NORAD 54053·PAYLOAD·🇺🇸 United States

打ち上げ Oct 20, 2022 から Cape Canaveral Space Force Station

Loading…

次のパス (今後24時間)

TLE

最新Source: CelesTrak SupGP

元期: Sep 14, 2026, 21:03 UTC

1 54053C 22136C   26257.87756944 -.00010264  00000+0 -32999-3 0  2579
2 54053  53.1576 201.0334 0001626  94.6671 234.9913 15.31712362    10

AllMySatでSTARLINK-5176をリアルタイム追跡

Download on the App Store